GFSCGP_sfc_wetblb_255.txt.gz
Wetbulb
39.77 33.54 27.06 30.88 34.24 33.99 32.20 30.22 27.60 31.64 36.35 35.36 34.87 35.58 35.22 37.26 38.26 38.58 39.36 39.15 40.45 41.41 44.56 46.48 47.86 49.07 49.31 49.70 50.64 51.14 51.50 56.53 60.32 61.79 61.56 61.65 60.83 60.90 60.48 60.55 60.20 59.40 59.62 58.79
33.73 31.34 35.52 36.65 35.77 34.66 32.41 27.85 26.80 31.92 35.93 36.63 34.93 32.46 34.82 35.76 37.52 38.84 38.85 39.39 40.16 41.73 43.42 45.00 46.01 47.61 47.75 48.56 49.12 49.75 50.80 53.53 57.69 61.31 61.84 62.09 61.54 60.88 60.52 60.09 59.75 60.00 59.55 59.20
30.82 33.45 36.83 34.71 33.01 32.21 28.96 25.25 23.80 29.28 33.69 35.80 32.09 26.62 30.73 34.06 36.96 38.98 39.65 40.49 40.41 40.88 41.75 42.84 43.73 44.78 45.85 46.33 47.70 48.25 49.79 51.34 53.58 57.20 61.29 60.25 60.77 60.75 59.84 59.48 59.28 59.53 59.63 59.67
32.02 35.14 33.70 31.89 31.82 32.09 27.98 33.50 32.19 31.39 30.08 22.19 32.41 17.95 21.41 29.49 33.47 36.71 38.45 38.92 39.27 39.78 41.07 41.59 41.83 42.46 43.92 44.90 47.19 47.99 48.82 49.47 51.25 52.91 60.20 57.79 56.86 58.32 59.30 59.69 60.31 60.31 60.64 60.26
29.42 31.35 30.78 30.75 32.38 33.16 29.91 35.59 32.08 30.67 29.60 28.94 24.89 26.39 21.10 29.70 28.07 32.54 36.16 38.49 38.90 39.81 40.14 40.27 40.71 41.32 43.09 44.16 45.21 46.54 47.98 48.33 49.20 51.00 55.63 57.42 56.30 58.88 58.89 59.22 58.05 57.77 57.99 58.54
32.81 35.95 33.54 32.54 34.36 34.03 34.83 32.22 32.20 30.79 30.39 17.29 19.48 20.55 19.06 22.51 28.28 31.54 34.53 36.06 37.72 38.69 38.75 39.47 40.58 41.18 40.99 42.26 43.56 45.12 46.28 47.08 47.96 49.10 50.65 51.49 51.70 52.86 53.65 53.73 52.88 53.14 53.86 54.05
30.08 31.22 34.19 35.09 30.19 33.26 32.99 27.32 15.63 13.45 14.82 17.56 25.26 21.72 22.68 27.85 32.25 33.12 33.69 32.86 35.13 37.46 37.34 37.78 38.04 38.69 39.59 40.04 41.10 43.37 44.40 44.98 46.88 47.63 48.57 49.44 49.67 49.65 49.44 49.83 49.99 49.91 50.17 51.01
24.39 22.03 31.46 34.23 30.62 28.44 29.61 28.36 18.54 11.67 15.74 18.73 26.60 20.08 24.45 32.37 32.93 34.54 32.04 31.96 33.59 34.14 35.83 36.67 37.29 37.65 38.19 38.98 39.90 41.20 42.56 43.28 45.09 46.06 47.13 48.32 48.82 48.75 49.00 48.95 49.00 49.04 49.01 49.33
25.24 25.64 32.77 33.45 33.36 32.15 28.35 25.65 29.81 25.25 19.70 20.91 22.25 26.29 30.84 33.20 31.20 29.30 29.24 30.63 30.43 32.22 33.45 34.66 36.56 37.25 37.22 37.77 38.53 39.80 41.08 41.95 42.89 44.32 45.49 46.09 47.11 47.49 47.28 47.56 48.03 47.76 48.28 48.91
30.18 24.30 29.87 31.98 33.91 33.31 30.53 32.57 24.41 22.80 11.00 12.19 20.20 22.91 23.85 29.30 29.47 29.12 27.68 27.32 28.87 30.86 32.39 33.43 35.15 35.83 36.45 37.03 37.87 38.71 40.12 40.44 41.33 42.23 43.50 44.14 44.35 45.20 46.06 46.15 45.62 45.86 46.23 46.70
31.78 27.35 25.75 30.08 28.50 27.56 29.37 27.86 28.50 26.83 24.99 20.22 17.71 20.67 28.18 30.27 31.22 28.30 28.13 29.91 28.76 29.65 31.14 32.36 33.52 34.73 35.30 36.01 36.40 37.01 37.85 38.66 39.36 40.69 41.44 41.89 42.00 42.25 42.40 42.14 42.45 42.79 43.45 44.04
32.52 28.68 21.90 25.15 28.87 30.87 29.87 27.24 28.19 21.95 20.07 23.11 23.78 21.70 31.43 31.91 31.17 29.28 28.80 30.45 30.15 30.11 30.99 31.50 32.41 32.98 33.24 33.59 35.15 35.49 36.33 37.24 37.63 38.71 39.89 40.35 40.65 40.55 40.21 39.72 39.98 41.00 40.81 41.47
32.37 20.18 11.63 19.16 25.61 29.20 28.39 30.21 30.38 28.91 27.16 22.98 19.16 20.72 30.43 29.14 28.15 28.83 28.49 29.10 30.43 30.26 29.41 31.06 31.60 31.55 31.68 32.13 32.83 33.76 35.05 35.51 36.46 37.41 37.95 38.50 39.04 39.39 38.62 38.10 37.95 38.39 38.96 39.24
35.75 25.83 21.97 18.65 23.23 26.29 25.93 27.61 30.00 28.67 21.19 23.19 23.80 22.83 27.45 27.36 27.36 27.59 28.13 29.19 29.10 29.87 30.98 30.58 30.29 30.65 31.32 31.84 31.62 32.38 33.37 34.48 35.34 36.13 36.27 36.34 36.74 37.66 38.09 37.80 37.01 36.84 36.96 36.92
31.83 19.30 23.26 26.36 27.53 27.72 27.47 27.12 27.68 27.18 27.64 23.87 22.90 24.80 28.11 29.88 28.72 28.47 28.55 29.16 29.23 29.84 30.26 30.17 30.41 30.21 30.33 30.49 31.34 32.03 32.60 33.00 33.64 34.12 34.64 34.92 35.97 36.65 37.16 36.97 36.73 36.15 35.77 35.36
30.48 17.31 21.62 17.42 24.16 24.74 22.87 26.45 27.28 27.95 28.35 27.61 28.59 27.89 31.38 30.91 27.96 26.83 28.97 29.26 28.99 29.63 30.17 30.73 30.82 31.32 31.23 30.93 30.85 31.96 32.09 31.95 32.39 32.16 32.22 33.17 34.01 34.61 34.96 35.58 35.66 35.71 34.95 34.71
28.13 19.69 13.39 10.81 17.87 15.73 15.79 22.06 24.27 26.16 26.95 28.89 24.73 29.47 30.91 29.60 29.82 29.31 29.40 30.16 29.97 29.97 30.34 30.67 30.97 31.14 31.24 31.00 31.59 30.90 31.33 31.82 31.22 30.94 30.94 31.20 31.70 32.00 32.46 33.35 34.01 33.84 33.85 33.75
22.58 16.43 9.47 9.62 9.63 8.98 24.79 23.15 23.61 25.34 27.40 29.62 29.69 28.86 31.45 33.03 32.88 33.15 31.89 31.63 30.11 30.54 30.74 30.88 30.95 31.01 31.33 30.91 30.77 31.40 31.24 30.74 30.45 29.93 29.86 29.97 30.06 30.11 30.55 30.92 31.54 31.90 31.95 32.12
28.10 23.82 7.43 9.91 1.75 17.54 23.57 22.30 22.65 22.84 24.26 28.20 29.72 31.96 30.84 30.06 28.61 28.90 31.37 32.51 32.61 31.88 31.73 31.71 31.61 31.24 30.67 30.22 30.37 30.55 29.74 29.63 29.69 29.36 29.21 29.20 29.37 29.57 29.28 29.29 29.50 29.99 30.03 30.06
26.55 24.94 17.78 0.11 5.32 7.31 24.01 23.88 26.07 25.94 19.90 26.67 30.27 30.93 30.05 28.50 25.99 30.13 30.55 31.37 31.10 31.91 32.09 31.95 31.39 31.17 30.24 30.11 30.37 29.93 29.27 28.99 28.67 28.77 28.72 28.67 28.82 28.57 28.50 28.39 28.40 28.91 28.24 29.84
23.06 21.91 13.40 0.73 3.86 13.67 24.82 25.78 26.91 17.84 25.30 25.71 28.30 29.73 29.97 28.91 32.07 32.34 32.02 30.55 31.94 32.07 32.03 31.67 30.80 30.57 30.06 30.30 30.10 29.50 28.76 28.65 28.83 28.67 28.25 27.54 27.52 28.28 27.98 27.91 28.10 28.20 28.46 28.92
21.59 19.21 16.27 13.68 7.91 12.52 25.93 25.19 23.44 27.66 27.00 27.41 27.76 30.72 32.04 30.12 30.13 30.18 31.82 30.41 31.00 31.22 31.19 30.83 29.88 29.37 29.28 29.60 29.56 28.86 28.15 28.46 27.06 26.13 25.58 23.47 22.60 26.07 27.44 25.07 25.84 26.17 27.74 27.30
20.49 23.29 18.84 21.04 22.48 28.09 27.45 27.24 28.81 28.39 28.21 28.12 29.80 30.66 32.29 30.50 29.60 29.70 29.41 30.54 31.30 30.95 31.00 29.98 29.49 28.80 28.67 28.84 28.63 27.40 27.35 26.42 22.79 18.53 17.45 18.19 19.68 23.65 24.43 25.10 25.15 24.42 24.60 24.35
22.59 25.67 22.13 23.20 28.30 27.32 28.09 28.43 27.80 29.00 29.09 29.10 30.33 31.27 30.88 30.18 29.89 29.08 29.55 30.24 30.32 30.27 30.33 29.18 28.12 27.80 27.89 27.31 26.44 25.89 25.55 22.20 15.52 15.16 16.37 18.00 19.54 21.10 20.72 23.31 25.08 23.21 22.60 23.13
23.55 26.53 23.28 22.67 27.45 26.70 28.90 29.83 30.71 30.41 28.95 29.39 29.81 30.76 31.22 30.65 29.65 29.42 29.58 30.14 30.90 30.22 28.57 28.49 28.01 27.37 26.70 23.56 21.21 17.69 18.46 14.98 15.92 15.56 16.83 17.35 18.12 17.53 19.45 21.33 21.37 23.32 23.23 26.53
25.11 24.98 25.23 24.84 29.63 30.86 31.68 31.21 31.91 30.32 29.17 30.29 28.87 29.05 29.95 30.60 30.52 29.32 29.38 30.83 30.11 28.41 26.34 25.73 25.02 24.50 24.13 21.35 18.15 12.84 8.77 11.93 13.95 17.07 16.88 16.44 17.08 16.27 18.31 19.01 19.92 27.69 30.13 30.96

GFSCGP_sfc_wetblb_258.txt.gz
Wetbulb
37.84 32.67 26.55 30.82 33.81 33.28 32.08 30.58 27.27 30.39 35.25 34.11 33.29 34.84 35.57 35.87 35.97 37.72 38.27 38.05 39.42 40.57 43.78 44.68 45.33 45.76 46.30 46.99 47.44 48.79 49.30 50.10 52.68 58.38 60.89 61.33 60.53 61.65 61.56 61.54 61.13 60.40 59.77 58.67
32.95 30.64 34.61 35.99 35.30 33.90 31.70 27.51 26.59 30.75 34.36 35.49 34.01 31.63 33.73 34.73 35.35 38.48 38.80 38.44 39.42 40.30 41.40 42.52 43.09 43.83 44.23 44.81 45.67 47.20 48.64 49.92 51.85 55.04 60.63 61.45 61.36 61.46 61.89 61.48 61.18 60.86 59.93 59.10
28.83 32.36 36.33 34.07 32.05 31.48 28.96 25.78 22.72 28.53 32.40 35.85 31.20 26.00 28.27 32.82 35.35 37.64 39.49 39.94 39.87 39.72 39.83 40.81 41.65 42.05 43.02 43.18 43.93 45.61 47.50 49.47 51.38 52.97 55.53 60.00 60.13 60.84 60.41 60.06 59.95 60.30 60.04 59.53
30.97 34.26 33.10 30.89 30.67 31.36 27.73 32.20 31.17 30.74 28.64 20.85 29.12 17.44 19.57 27.78 31.79 34.40 35.30 37.18 37.25 39.35 39.71 40.09 40.54 40.86 41.85 42.68 43.82 44.86 47.01 48.79 50.66 52.62 53.54 57.69 56.02 57.22 58.23 59.30 59.38 59.72 59.93 59.59
29.00 31.15 29.90 29.66 30.85 32.51 28.95 34.43 31.75 29.86 28.58 30.87 22.89 15.97 20.26 27.48 26.66 30.93 33.88 34.92 35.84 37.44 38.53 38.77 39.25 40.29 41.96 42.55 43.00 44.04 46.33 48.67 49.42 51.07 52.96 57.54 57.00 56.60 58.74 58.82 58.52 58.47 58.14 59.17
31.72 35.26 32.70 31.48 33.30 33.12 33.89 31.47 30.07 29.64 28.46 17.02 18.00 18.41 18.55 20.08 26.03 29.71 33.01 33.11 33.78 35.75 36.54 38.07 39.34 39.78 40.12 41.69 42.45 43.12 44.49 46.74 48.67 48.74 50.09 50.72 52.47 54.18 51.46 51.98 51.75 51.79 52.60 53.20
29.50 30.92 33.59 34.15 29.60 32.51 32.06 26.42 14.95 13.24 13.21 17.22 23.53 20.76 22.89 26.98 31.39 32.50 32.15 30.98 32.16 33.36 34.76 36.60 37.18 37.69 38.46 39.30 40.61 41.88 43.54 43.88 46.62 47.54 47.94 49.27 49.51 49.65 49.58 49.78 50.16 50.37 50.55 50.96
24.17 21.72 30.67 33.49 29.88 27.65 29.44 27.22 17.89 12.13 14.01 17.31 25.74 19.92 24.72 30.76 32.69 34.04 30.95 29.71 31.58 31.69 32.92 34.77 36.58 37.02 37.32 38.12 39.22 40.23 41.72 42.77 44.08 45.97 46.49 47.48 48.49 48.87 48.82 49.13 49.55 49.60 49.62 49.93
25.12 25.01 31.94 32.48 32.82 31.46 28.12 25.02 28.86 24.13 17.49 19.05 20.83 25.19 29.11 31.21 29.44 28.76 28.35 28.99 29.27 30.65 31.16 32.31 34.44 35.26 36.15 36.80 37.58 38.63 39.91 41.27 42.71 43.51 44.62 45.13 46.24 46.44 46.85 47.80 48.50 48.38 49.22 49.27
30.13 24.25 29.36 31.34 33.60 32.67 29.68 31.83 23.56 21.92 9.95 11.19 17.85 22.26 23.46 28.54 29.28 29.17 27.21 27.16 28.71 29.57 30.71 31.73 32.56 33.75 35.00 35.91 36.77 37.92 38.91 39.52 40.66 41.85 42.44 42.55 42.93 43.65 44.13 44.62 44.61 45.21 45.93 46.38
31.11 26.98 25.10 29.67 28.33 27.61 28.91 27.61 27.78 26.11 24.29 18.12 16.08 19.27 27.53 28.90 30.91 29.15 27.66 28.76 29.11 29.18 30.30 30.77 32.02 32.77 33.39 34.61 35.27 36.08 37.14 38.09 38.87 40.01 40.36 40.44 40.46 40.70 41.13 41.22 41.72 42.04 42.52 42.70
31.75 27.75 20.59 24.18 27.73 29.99 28.42 27.56 27.84 21.16 18.50 22.16 22.98 21.04 30.37 29.53 31.42 30.16 27.98 29.32 29.52 29.81 30.24 30.25 31.01 31.50 31.82 32.44 33.40 34.17 35.38 36.60 37.10 38.24 39.09 39.09 39.26 39.01 38.64 38.52 39.23 40.07 39.53 39.94
31.85 20.91 11.73 18.98 25.00 28.07 28.03 29.46 29.97 27.95 26.87 22.00 18.60 20.16 29.71 28.93 27.90 28.24 27.70 28.10 29.59 28.99 28.62 30.07 30.35 30.39 30.53 31.09 31.90 32.47 33.65 34.41 35.94 36.96 37.50 37.90 38.01 37.62 37.07 37.23 37.54 37.82 38.01 37.54
34.78 25.34 22.50 19.55 23.32 25.96 25.72 27.60 29.39 28.14 20.94 22.18 23.46 21.98 26.68 27.75 27.36 26.69 27.04 28.17 28.31 29.19 29.67 29.35 29.47 29.70 30.02 30.85 30.75 31.51 32.27 33.31 34.30 35.20 35.83 35.99 36.17 36.46 36.55 36.52 36.05 36.18 36.09 36.25
31.39 19.68 23.01 25.99 26.86 27.73 27.57 27.12 27.83 27.20 27.49 22.31 21.80 24.11 27.35 29.68 28.66 27.91 27.66 28.05 28.27 29.12 29.06 28.90 29.13 29.42 29.48 30.14 30.66 31.14 31.50 32.17 32.71 33.06 33.81 33.87 34.93 35.87 36.22 35.95 35.56 35.23 35.08 34.84
29.76 18.53 21.45 16.97 23.47 24.21 22.54 26.28 26.95 27.92 29.08 28.20 28.65 28.17 30.97 30.66 28.39 26.58 28.39 28.21 28.03 28.90 29.32 29.53 30.12 30.22 30.19 30.16 30.25 31.27 30.73 30.99 31.54 31.38 31.35 32.42 33.16 33.54 33.83 34.39 34.48 34.54 34.11 33.89
28.10 20.70 14.10 12.67 17.70 16.11 17.88 20.09 24.28 25.63 26.65 28.80 25.26 29.60 30.79 28.72 28.97 28.70 28.65 29.43 29.54 29.67 29.63 29.73 30.25 30.31 29.95 29.97 30.79 30.32 30.38 30.65 30.35 30.23 30.15 30.37 31.04 31.09 31.47 32.39 32.61 32.37 32.27 32.52
23.51 17.19 10.37 10.26 10.68 11.74 26.40 23.48 24.84 25.47 26.65 29.57 29.84 29.11 30.64 31.75 32.56 33.32 30.94 30.72 30.08 30.28 29.89 30.12 30.09 29.76 30.11 29.83 30.11 30.41 30.12 29.76 29.77 29.53 29.52 29.71 29.83 29.71 29.94 30.32 30.45 30.30 30.30 30.31
27.69 23.16 8.93 11.05 4.31 19.05 24.99 22.06 22.46 22.97 24.65 28.06 29.31 31.50 29.35 29.28 28.83 29.95 31.25 31.97 32.63 32.28 31.84 31.76 31.30 30.57 29.96 29.45 29.74 29.66 29.19 29.27 29.37 29.22 29.07 28.86 29.05 29.22 29.08 29.00 28.82 28.78 29.01 29.06
26.13 24.86 18.81 1.79 6.15 11.18 25.07 23.93 25.53 25.94 20.18 26.89 28.43 29.46 27.96 29.01 25.62 29.21 30.48 31.65 30.98 31.29 31.96 31.28 30.95 30.51 29.60 28.98 29.53 29.27 28.75 28.54 28.49 28.82 28.78 28.56 28.88 28.54 27.95 27.99 28.22 28.52 28.13 28.98
23.25 17.00 12.12 2.87 6.33 14.45 25.44 25.74 26.19 19.45 27.16 26.18 27.00 27.91 28.77 28.94 31.27 31.61 30.60 30.10 31.96 32.26 31.21 30.77 30.18 30.57 29.55 29.26 29.39 28.83 28.34 28.53 29.00 28.76 28.09 27.22 27.27 28.00 27.64 27.67 27.60 28.04 28.12 28.31
23.02 19.94 17.58 7.25 6.57 13.72 25.68 24.54 23.90 28.49 26.36 27.86 27.15 27.67 30.05 30.01 30.37 30.02 29.59 28.98 30.26 30.36 30.21 30.70 30.05 29.75 29.06 29.16 29.12 28.74 28.13 28.83 27.30 26.15 25.56 22.91 21.87 25.44 26.87 24.49 25.02 25.19 27.03 26.18
21.62 23.75 20.03 21.82 22.82 28.35 29.09 27.48 28.64 27.73 28.24 27.92 28.73 29.05 30.32 29.59 29.26 29.29 28.59 28.73 30.08 30.47 30.91 30.40 30.37 28.87 28.20 28.41 28.42 27.77 27.87 26.53 23.24 18.45 17.02 17.41 18.95 22.74 23.25 23.93 23.50 22.75 23.75 23.40
22.69 25.12 21.94 23.42 29.25 27.76 27.54 29.37 27.03 28.30 28.77 29.07 30.07 30.47 30.08 29.50 29.85 29.41 28.65 28.84 29.40 29.74 30.19 29.21 28.27 27.66 27.32 26.74 26.91 26.75 25.88 22.65 16.19 14.74 15.54 16.54 18.35 20.03 19.38 22.30 23.86 22.57 22.75 25.02
23.44 25.99 23.03 22.65 27.79 27.00 28.44 29.68 31.85 30.53 28.48 28.83 29.12 30.48 30.89 29.94 29.48 29.53 28.58 28.97 30.05 30.14 28.71 28.99 28.63 27.87 27.30 24.43 22.50 18.29 20.29 16.29 15.33 14.66 15.48 17.01 17.17 16.82 18.06 20.10 20.38 22.28 25.02 28.71
24.55 24.82 25.74 25.72 29.96 32.07 31.75 31.83 32.60 30.71 28.85 30.24 28.55 28.66 29.83 30.38 30.33 29.04 28.58 29.60 29.65 28.50 26.37 26.12 25.72 25.30 24.37 22.99 20.95 15.79 14.86 16.62 16.80 16.86 16.82 16.48 16.83 15.28 16.77 17.28 18.42 27.66 29.73 30.96

GFSCGP_sfc_wetblb_264.txt.gz
Wetbulb
43.15 41.11 38.97 39.36 39.44 38.63 38.16 36.39 34.67 37.03 39.20 38.02 38.17 39.05 40.97 40.51 41.00 40.88 41.26 41.85 41.94 42.44 44.75 45.49 44.21 44.08 45.22 47.09 45.27 45.70 46.61 47.53 48.43 49.11 49.70 51.39 53.93 58.97 60.77 62.54 62.39 62.21 61.88 60.86
40.57 38.54 39.23 41.10 39.98 38.38 37.25 34.90 34.39 37.05 37.91 37.59 38.15 38.06 40.41 40.03 40.14 40.67 40.45 40.99 41.07 41.69 42.19 43.53 44.80 43.82 43.00 43.71 44.24 44.96 45.98 46.47 47.11 48.63 50.62 52.17 55.74 60.16 62.29 62.52 62.02 61.99 61.26 60.67
37.87 38.87 40.05 38.18 36.88 35.85 35.29 35.47 33.63 34.18 37.23 37.69 36.70 36.27 36.32 39.23 40.22 41.29 41.85 41.98 41.34 40.22 39.64 41.45 43.35 43.87 43.21 42.73 43.74 45.51 45.90 45.90 46.46 48.57 51.09 52.39 55.41 56.88 61.23 61.25 61.54 61.88 61.70 60.69
38.01 39.24 37.63 36.49 34.88 36.86 32.08 36.75 35.17 34.66 34.29 32.47 36.10 34.52 31.36 36.32 37.39 39.33 40.46 41.05 40.38 39.64 40.22 41.11 42.50 43.76 43.06 43.30 45.78 45.98 45.46 45.64 45.79 48.74 50.78 51.38 54.13 57.46 60.31 61.46 61.38 61.57 61.83 60.86
35.72 36.35 35.94 34.92 35.61 37.27 33.52 37.11 36.35 34.89 34.32 33.44 31.71 32.06 36.82 32.99 34.54 37.70 39.74 39.45 39.13 39.38 39.40 39.78 41.17 42.83 43.54 43.21 43.11 45.41 45.25 45.46 44.96 47.96 51.59 52.76 54.06 58.53 59.77 58.11 57.22 59.91 60.57 60.02
37.06 39.82 38.41 37.67 37.41 37.33 38.13 36.23 34.65 35.21 34.59 28.89 28.90 30.26 36.73 34.59 36.24 37.32 39.11 38.93 37.92 38.45 39.18 40.05 41.15 41.84 41.79 43.16 42.92 42.74 43.83 44.41 44.27 46.46 50.99 54.50 54.19 53.70 52.96 52.64 52.51 53.28 54.66 56.02
35.31 36.36 38.28 38.75 35.72 37.50 36.85 33.34 30.64 29.04 27.58 29.28 29.57 28.90 35.88 36.44 37.72 39.22 38.78 38.29 37.98 38.46 38.71 39.08 39.17 39.62 40.38 40.96 41.38 40.95 42.49 42.77 43.65 44.22 46.78 50.36 50.96 51.60 51.70 51.28 51.36 51.45 51.91 52.65
33.58 30.98 35.71 38.50 36.28 34.57 34.98 33.50 29.69 25.17 25.79 29.05 28.60 27.34 36.33 37.32 38.62 39.86 39.80 38.09 37.27 37.83 38.15 38.37 38.62 39.22 39.69 40.16 40.80 41.15 40.91 41.69 42.54 42.77 44.31 46.07 48.34 49.68 49.79 50.22 50.35 50.55 50.59 51.01
32.15 30.76 36.45 36.35 37.62 36.53 33.63 30.84 33.31 27.77 23.93 26.54 30.76 32.99 36.64 36.62 37.13 38.12 38.60 36.99 37.22 37.26 37.39 37.51 38.34 38.83 39.28 39.98 40.68 40.21 40.19 40.83 41.34 41.58 42.50 43.58 44.49 45.62 46.28 47.96 48.54 48.46 49.29 49.43
35.69 30.41 34.11 35.43 37.92 37.13 34.95 36.16 29.47 30.27 24.25 23.74 28.89 28.01 33.58 33.45 35.51 37.32 36.91 37.11 37.35 37.25 37.39 37.52 38.07 38.13 38.97 39.91 41.02 41.97 41.13 40.11 40.35 40.76 40.88 41.88 42.37 42.93 43.82 44.58 44.50 45.44 46.05 46.26
36.49 33.96 30.38 34.41 33.41 33.39 32.53 31.89 31.40 30.91 29.88 25.03 24.61 31.71 37.94 38.25 38.90 38.42 38.92 38.60 37.64 37.37 37.07 37.28 37.73 38.16 38.73 39.84 40.33 41.07 41.29 40.75 40.12 40.32 40.01 40.15 40.21 40.99 41.47 41.23 42.08 42.47 42.93 43.06
36.61 33.80 29.18 30.95 33.54 34.53 33.86 33.08 33.15 29.24 25.27 27.99 26.36 30.07 36.56 38.46 38.76 40.29 40.21 38.84 37.90 37.67 37.68 37.34 37.23 37.48 38.12 38.65 39.18 39.76 40.65 40.80 41.27 40.50 39.86 39.74 39.96 39.89 39.56 39.62 40.12 40.91 40.40 40.96
35.96 32.02 27.61 27.87 30.12 32.26 31.46 33.27 33.82 31.63 30.73 25.89 26.24 33.00 35.54 36.11 36.89 38.51 39.99 38.64 36.95 37.47 37.28 37.04 36.91 37.42 37.45 37.77 38.33 39.13 39.68 40.37 40.86 41.26 40.77 40.19 39.34 39.25 38.88 38.98 39.34 39.44 39.46 39.36
38.05 31.40 30.88 31.29 29.86 31.10 28.43 31.26 33.28 33.10 28.15 28.38 29.20 32.98 33.69 35.49 36.49 37.86 37.98 37.83 37.40 37.08 36.88 37.10 36.51 36.74 37.16 37.02 37.61 38.44 39.12 40.05 40.64 40.43 40.20 39.62 39.34 39.24 38.76 39.03 39.07 39.09 39.25 38.84
35.24 30.47 28.15 29.37 29.81 30.67 30.69 30.73 31.15 30.37 32.81 29.22 34.48 31.82 37.26 38.19 38.30 39.55 39.72 37.23 35.96 35.78 35.84 36.39 36.31 36.64 37.03 36.89 36.94 37.57 38.30 38.60 39.76 39.75 39.27 38.90 39.47 39.64 39.39 38.76 38.34 38.46 38.31 37.96
33.69 31.04 27.26 26.89 26.86 27.61 25.81 29.90 31.62 31.93 32.75 33.14 32.89 32.66 40.04 40.17 40.95 39.54 37.35 35.51 34.75 35.87 36.30 36.44 36.17 36.05 35.79 36.36 37.01 36.47 37.30 37.27 38.61 38.10 37.40 37.83 38.06 38.05 37.81 37.69 37.63 37.42 36.88 37.06
31.52 27.90 26.52 27.46 21.82 21.67 24.53 26.13 29.11 31.92 33.26 33.41 30.07 36.13 37.81 36.68 36.32 37.73 38.04 36.78 35.60 36.28 36.81 36.36 36.17 36.29 36.39 36.88 36.97 36.93 36.78 36.83 36.88 36.62 36.42 36.72 37.01 36.33 36.16 36.35 36.10 35.46 34.98 35.62
29.51 29.05 26.39 26.15 22.22 22.19 32.55 30.20 32.00 32.21 35.06 34.91 35.53 37.39 38.13 39.30 39.50 40.23 40.99 38.48 37.56 37.10 37.12 37.22 37.15 37.36 37.26 37.78 37.41 36.87 36.31 36.47 36.47 36.07 35.54 35.89 36.30 35.45 35.51 35.09 34.59 34.20 34.45 34.00
31.90 28.02 22.97 24.11 23.21 27.71 34.00 26.46 28.01 28.75 32.66 34.46 34.58 36.58 39.07 36.42 37.03 38.12 39.75 40.46 40.47 38.93 38.99 38.99 38.81 38.47 37.78 36.72 37.11 36.41 35.86 36.21 36.12 35.45 35.13 34.96 35.34 34.50 34.52 33.78 33.40 33.51 33.77 33.61
28.93 28.54 29.33 17.77 23.30 23.77 32.26 28.64 30.58 32.80 30.19 37.09 36.13 36.15 37.30 35.72 31.32 38.43 40.46 39.28 39.89 40.14 39.84 38.79 38.35 37.67 36.97 36.46 36.67 35.71 35.37 35.19 35.21 35.17 34.54 34.61 34.26 34.16 33.52 33.06 32.68 32.30 33.28 31.64
24.12 24.90 24.60 23.64 24.73 27.32 32.75 29.16 30.70 29.47 36.20 33.10 34.59 36.41 35.12 34.18 38.55 37.95 37.38 38.91 39.91 39.06 38.50 38.36 37.25 36.41 36.77 36.33 35.65 35.13 34.94 34.63 35.61 34.17 32.78 31.92 32.78 32.68 33.75 32.84 32.15 32.18 31.45 31.32
26.17 25.06 23.71 21.37 22.72 22.00 29.21 27.25 29.69 36.76 33.08 33.39 33.60 34.36 35.27 37.59 36.92 36.84 36.32 37.27 37.25 36.52 36.77 37.10 36.25 35.96 36.41 35.16 34.76 34.44 33.89 34.89 33.71 32.62 30.82 29.75 29.91 30.60 31.29 31.27 30.80 31.06 31.63 30.88
26.39 30.76 25.93 27.89 28.95 33.86 32.55 34.13 33.57 33.20 34.07 32.88 34.35 34.31 36.01 35.60 35.93 37.13 36.07 35.35 35.74 36.58 35.69 35.93 36.58 34.94 34.54 34.01 34.63 33.21 34.14 32.82 31.13 28.52 25.83 26.35 26.92 28.96 29.92 31.39 30.14 30.76 31.61 31.35
27.17 30.47 27.26 27.80 33.11 31.83 31.71 34.50 33.18 32.90 33.11 34.22 34.87 35.18 34.58 34.94 35.74 34.91 34.38 33.59 33.50 34.06 34.35 34.46 34.57 33.55 32.53 33.01 32.06 34.00 32.48 30.99 27.44 26.75 25.36 25.43 26.51 27.87 28.87 30.43 31.39 31.50 30.71 30.75
29.54 29.44 28.84 27.02 30.35 31.66 33.30 33.81 35.61 34.38 32.49 32.50 33.84 34.91 34.83 35.22 33.53 34.45 34.05 33.13 33.50 33.01 32.87 33.32 33.27 33.13 33.37 32.23 31.98 31.54 30.70 28.09 27.64 26.32 25.45 26.86 28.55 28.51 28.56 29.38 30.21 29.82 31.02 32.28
28.70 28.46 28.71 30.62 33.90 34.75 35.84 37.02 36.60 34.42 32.62 34.02 33.82 32.18 33.09 34.51 34.72 33.86 34.29 34.37 32.94 32.05 31.93 31.67 32.58 32.71 33.31 31.63 31.27 30.24 28.96 28.40 27.45 26.44 25.82 27.41 27.94 27.94 28.77 28.91 28.48 30.03 30.97 30.84

GFSCGP_sfc_wetblb_270.txt.gz
Wetbulb
45.60 39.47 36.57 40.52 40.82 40.50 38.63 36.21 33.96 37.87 40.87 36.51 36.50 37.64 40.63 43.37 42.35 39.59 40.00 38.64 38.44 39.78 41.70 41.77 42.24 43.92 44.61 44.76 44.69 45.27 45.12 45.90 46.84 46.14 45.85 46.13 46.51 49.17 50.86 51.52 52.87 56.51 61.45 60.97
40.49 36.18 41.97 42.97 41.77 39.70 37.89 33.76 33.30 37.31 39.77 36.58 36.13 36.02 39.82 41.99 41.96 41.21 40.39 38.51 39.08 40.40 40.44 40.81 40.90 41.51 42.26 42.71 44.12 45.43 44.92 45.58 46.00 46.39 46.44 46.94 47.29 49.41 51.44 53.64 54.96 56.95 60.92 60.86
36.99 39.52 42.78 41.10 38.54 37.58 35.96 33.31 30.50 32.43 37.32 38.28 35.97 33.47 36.48 39.85 41.56 42.42 41.52 41.84 41.36 39.62 38.22 39.29 40.19 39.46 40.04 41.54 43.89 44.81 44.91 45.32 45.93 46.00 46.13 47.23 48.45 49.44 50.34 51.77 54.81 58.24 60.95 60.82
38.83 41.20 39.73 37.49 37.63 38.02 32.51 38.05 36.81 35.62 32.55 26.69 35.29 22.45 34.41 36.09 37.91 40.17 41.12 40.58 39.51 37.40 39.06 39.55 39.51 38.81 39.37 41.31 43.48 45.00 45.01 45.28 45.53 45.68 46.93 47.48 48.72 49.61 51.65 52.91 55.98 58.62 59.46 60.51
35.86 36.77 35.86 36.49 37.84 38.58 35.22 37.71 36.05 34.69 31.77 31.44 28.21 24.82 31.30 33.96 33.16 37.03 39.39 40.88 38.85 37.05 37.35 38.02 38.55 39.95 40.81 41.61 43.51 44.40 44.39 44.82 44.73 45.29 47.21 52.18 51.46 52.34 55.25 55.09 55.47 58.88 59.57 60.05
38.07 40.44 39.17 38.08 39.15 38.63 39.45 36.46 35.85 33.88 32.10 22.22 28.04 26.48 27.25 29.48 32.41 35.69 39.84 39.86 38.73 37.08 36.51 38.43 39.34 40.14 39.75 40.98 42.48 43.56 43.36 43.69 43.93 44.40 45.37 49.04 50.51 51.77 52.59 53.58 53.35 54.46 55.13 57.79
36.06 36.29 38.37 39.63 35.66 37.64 36.44 31.86 25.01 23.22 20.70 23.78 30.23 25.82 28.83 37.39 38.53 38.87 38.90 38.40 36.90 36.42 35.87 36.46 36.32 36.83 38.18 39.56 40.52 42.65 42.39 42.27 43.11 43.40 43.70 45.83 48.52 49.80 49.95 51.06 51.44 51.52 51.64 52.30
30.56 27.61 35.75 38.45 35.90 33.69 33.51 32.19 25.62 19.61 21.82 23.11 27.28 22.95 29.81 38.48 39.63 40.07 40.21 38.45 37.36 36.07 36.83 35.88 36.13 36.41 37.38 39.63 39.86 41.45 41.50 41.41 42.44 42.50 42.58 43.81 45.75 47.70 48.02 48.88 49.62 50.12 49.97 50.34
32.82 30.53 36.81 38.02 38.42 36.28 33.14 26.99 32.66 26.83 22.20 22.66 26.70 30.80 34.87 36.00 36.00 37.85 37.58 37.76 35.34 35.73 35.32 35.07 35.52 36.05 36.74 38.57 39.39 40.19 41.29 40.88 41.72 42.05 42.21 41.99 43.07 44.41 44.99 46.28 47.07 47.71 48.24 48.56
36.74 29.03 35.12 35.84 36.98 36.27 33.52 35.35 25.84 25.36 16.78 19.72 26.27 26.32 27.54 31.49 33.78 36.31 36.37 36.52 36.07 35.37 34.98 35.25 35.13 35.52 36.67 38.49 39.25 39.73 41.68 40.28 41.12 41.69 41.95 41.42 41.30 41.89 42.77 43.73 43.07 43.83 44.60 45.05
37.08 33.34 29.78 34.07 31.78 31.46 29.92 29.00 30.92 30.07 27.11 23.18 21.68 26.13 32.28 35.20 36.54 36.41 36.56 38.57 36.35 34.63 34.47 34.59 34.94 35.53 36.45 37.95 38.59 38.81 40.21 40.43 40.12 40.68 40.98 40.88 40.59 40.88 41.46 41.09 41.39 41.27 41.91 41.84
37.35 34.00 26.25 29.37 33.45 35.04 34.03 32.35 31.92 25.31 24.54 25.25 25.34 25.28 35.70 36.96 37.97 38.83 38.10 39.28 36.60 35.56 34.81 34.26 34.76 35.09 35.37 36.35 37.81 38.17 38.55 38.80 39.61 40.47 40.27 40.05 40.23 40.07 39.69 39.42 39.72 40.04 39.29 39.57
37.08 28.35 22.62 26.18 28.12 31.63 30.28 32.99 33.70 32.03 28.09 25.65 22.72 27.11 35.70 36.05 34.50 36.72 37.72 38.12 35.97 34.84 34.24 34.16 34.25 34.24 34.45 35.36 36.97 37.58 37.96 38.10 38.97 39.35 38.91 39.27 38.91 38.51 38.25 38.42 38.68 38.78 38.54 38.16
38.98 30.90 28.77 26.26 25.66 29.66 26.40 29.06 31.98 31.08 24.15 26.21 27.47 28.55 30.44 33.80 34.85 36.25 36.83 37.96 35.23 34.68 34.78 33.77 33.60 33.83 34.24 35.37 35.80 36.64 37.35 37.91 38.23 37.95 37.35 36.91 36.74 37.31 37.71 37.88 37.87 37.97 38.22 38.01
36.29 24.11 27.25 28.14 29.79 29.02 28.71 29.28 29.92 29.30 30.95 25.89 30.14 30.73 34.64 35.97 35.50 37.17 37.63 38.56 35.93 35.50 34.93 33.73 33.56 33.46 33.51 33.80 35.00 36.36 36.87 37.66 37.70 36.89 36.48 36.16 36.52 36.83 36.99 36.92 37.14 37.31 37.45 37.35
35.59 24.03 26.11 21.38 28.62 28.65 26.22 28.47 30.56 31.19 31.52 31.80 32.82 31.44 38.28 38.72 36.58 36.74 38.15 38.72 37.32 35.84 35.62 35.19 35.21 34.98 34.53 34.77 34.65 36.37 36.14 36.59 37.19 35.99 35.56 36.11 36.02 35.84 35.21 35.18 35.50 35.22 35.18 35.59
31.27 28.95 26.43 22.47 24.04 21.51 17.72 25.19 28.23 30.73 33.30 33.19 28.48 34.98 36.59 35.62 37.27 39.19 37.91 39.31 38.75 36.81 36.51 35.67 35.44 35.54 34.94 34.30 35.80 34.57 35.19 36.40 35.89 35.22 35.38 35.20 34.91 34.18 33.85 33.81 33.35 32.78 33.06 34.48
29.40 29.25 29.08 24.44 24.08 18.16 30.20 30.54 32.88 31.61 34.33 35.74 36.29 38.06 37.67 38.54 38.76 39.47 39.84 40.06 39.38 38.50 37.15 36.65 35.93 35.55 35.10 34.51 34.53 35.12 35.20 35.02 34.71 34.31 34.24 34.07 33.34 32.42 32.03 31.88 31.46 31.60 31.78 32.24
33.21 30.89 27.63 22.62 21.99 28.13 32.49 30.39 28.78 28.00 30.20 35.57 36.26 38.21 39.09 36.76 34.88 36.16 39.75 40.77 41.37 39.86 38.73 37.96 37.38 36.44 35.76 35.02 34.38 34.50 33.46 33.72 33.53 32.85 32.83 32.82 31.74 30.59 29.92 29.43 29.32 29.97 30.47 30.23
32.75 32.51 29.67 22.13 18.66 18.49 30.35 27.59 30.89 33.97 26.57 37.56 37.77 37.99 38.12 35.35 32.18 35.94 39.97 40.20 40.67 40.41 39.20 38.01 36.88 36.56 35.89 34.90 34.31 33.60 32.51 32.47 32.33 31.65 31.51 31.43 31.39 30.26 29.28 29.13 29.35 29.90 29.75 30.23
27.29 28.04 26.15 25.90 23.79 24.37 33.32 29.20 30.31 27.07 31.74 33.77 35.66 37.90 36.22 35.44 36.80 35.97 36.95 40.22 40.61 40.72 38.32 38.53 37.19 36.10 36.17 35.40 34.09 31.97 32.19 32.26 32.07 31.67 31.21 31.13 30.89 30.67 29.84 29.13 29.06 28.76 28.91 29.18
26.74 25.76 25.48 27.42 25.27 22.25 30.15 28.45 29.70 34.69 32.44 31.58 33.84 35.14 35.36 35.63 36.06 34.33 35.27 37.45 38.38 37.86 37.55 37.83 36.26 34.51 34.62 34.45 33.40 31.62 31.57 31.73 31.51 31.01 30.32 29.16 28.16 29.44 29.72 27.65 28.21 28.20 28.62 27.55
25.76 29.66 27.68 28.63 28.65 32.37 30.53 31.74 33.34 32.79 32.78 32.23 31.01 32.88 34.18 35.45 34.31 34.53 34.54 35.76 37.04 37.30 36.14 35.21 35.22 31.97 33.11 33.62 33.82 31.97 32.10 31.68 30.28 27.90 26.35 24.67 25.02 27.50 28.08 27.66 27.07 27.41 27.46 26.81
28.84 32.71 28.10 28.99 32.25 34.70 33.26 34.13 33.47 35.14 33.14 33.95 33.40 32.36 32.69 33.80 34.21 32.89 32.49 32.92 33.31 33.10 34.13 34.20 32.08 32.45 31.72 32.79 32.77 33.19 31.63 30.95 28.76 26.79 23.88 23.25 24.68 24.99 25.22 27.82 28.17 27.70 27.43 26.30
28.89 31.06 27.84 28.61 31.77 31.65 33.84 35.00 37.71 35.79 33.76 32.76 32.15 32.71 33.66 33.37 32.35 32.45 32.15 31.83 32.29 32.27 32.56 33.13 32.90 32.74 32.30 32.09 31.83 30.30 30.68 29.39 28.22 25.68 23.87 24.26 24.33 24.54 24.74 25.77 27.30 28.33 26.68 29.27
31.18 28.25 29.26 28.40 34.04 35.84 37.83 38.62 38.25 35.05 34.60 34.87 33.46 31.13 31.18 32.18 31.62 32.21 32.15 32.48 31.55 31.30 31.08 31.50 31.05 31.58 31.36 31.34 30.60 29.72 30.38 30.24 28.27 26.04 24.68 24.87 25.32 23.90 24.94 25.87 22.16 30.92 31.76 33.19

GFSCGP_sfc_wetblb_273.txt.gz
Wetbulb
41.88 35.99 29.29 36.07 37.72 38.04 35.61 33.11 30.66 34.98 38.99 35.05 34.13 35.14 37.69 40.24 40.12 38.08 37.86 38.00 37.38 37.79 39.29 39.71 39.89 39.82 40.54 41.33 42.41 43.89 45.43 46.03 46.12 45.75 45.56 45.87 45.85 47.42 48.76 50.80 51.73 51.07 53.00 56.45
36.90 32.18 38.85 41.14 39.81 37.72 35.92 31.26 30.43 34.22 37.85 35.34 33.72 34.15 37.98 38.98 39.90 39.30 38.65 37.72 37.95 38.20 38.04 39.03 38.94 38.78 38.26 39.85 41.09 44.16 45.10 45.42 45.85 46.08 46.06 46.40 46.56 47.63 48.78 51.01 52.75 51.99 53.28 58.06
33.89 37.02 41.13 39.33 36.71 36.00 33.53 30.21 28.32 30.13 35.40 36.16 33.48 29.36 35.35 38.49 39.96 40.43 39.97 40.31 40.17 38.16 36.32 37.33 38.51 37.55 37.55 39.11 40.82 43.84 44.76 45.00 45.47 45.64 46.13 47.52 47.84 48.09 48.08 49.69 51.32 52.75 54.76 59.10
35.85 39.04 38.16 35.59 35.96 36.20 30.07 36.68 35.00 33.76 29.89 23.84 32.67 21.27 24.85 34.41 35.76 38.69 39.49 38.92 38.35 36.49 37.03 37.62 37.72 37.06 37.72 39.54 43.02 43.41 44.50 44.68 45.03 45.25 45.68 48.49 47.63 48.64 51.18 50.93 52.99 54.60 57.61 59.04
33.54 35.23 34.42 34.71 35.86 36.72 33.36 36.13 34.30 32.88 29.39 28.86 26.94 20.78 26.37 32.86 32.22 35.58 38.10 38.96 37.18 35.84 36.30 36.04 36.51 37.92 38.88 39.75 41.47 43.60 44.00 44.17 44.24 44.48 45.17 48.06 51.57 52.97 54.25 55.38 54.45 54.51 58.15 59.55
35.37 38.78 37.16 36.24 37.01 37.39 37.81 34.68 33.75 31.82 29.58 19.17 22.81 23.52 24.42 27.11 31.49 33.10 37.67 38.70 36.33 35.61 35.78 36.41 36.95 37.98 37.85 38.97 39.61 42.91 43.15 43.17 43.69 43.72 44.19 46.03 48.82 49.35 50.73 52.96 53.02 53.79 56.20 57.25
33.32 34.01 36.59 38.23 34.05 36.25 34.80 29.53 20.75 20.09 18.39 20.36 28.24 24.02 27.07 34.70 36.81 36.72 37.32 35.85 34.84 35.13 34.49 34.45 34.00 34.79 36.77 38.02 38.59 41.70 42.38 41.95 42.87 42.80 42.92 44.60 47.36 48.04 48.66 50.95 51.18 51.26 51.64 52.82
27.38 25.00 33.91 36.66 34.34 32.21 31.41 30.08 24.30 18.06 20.32 21.73 26.23 22.47 28.35 36.22 38.29 38.06 38.47 36.27 35.07 34.47 35.09 34.16 33.72 34.41 35.94 37.97 38.24 40.26 41.54 41.56 42.15 42.37 42.16 43.10 44.99 46.30 46.86 48.31 49.16 49.63 49.51 50.17
29.67 28.84 35.10 35.74 36.02 34.86 31.34 27.16 31.06 25.23 20.11 20.40 23.00 28.05 33.13 34.37 34.69 35.12 34.37 34.09 33.22 33.86 33.34 33.48 33.35 34.31 35.55 37.11 37.80 38.89 40.94 41.52 41.48 41.96 42.16 42.01 43.07 43.89 44.00 45.28 45.77 46.62 48.36 48.43
34.09 28.34 33.83 34.59 35.77 35.07 32.46 33.63 24.51 23.04 14.97 16.89 23.26 25.18 26.08 30.62 32.50 34.44 34.31 33.50 33.32 33.26 32.79 32.91 33.23 33.98 35.42 36.99 37.46 38.55 40.98 40.83 41.10 41.49 41.92 42.05 41.89 43.15 43.12 43.23 43.23 43.64 44.07 44.45
36.42 32.51 29.22 33.51 30.70 29.71 29.17 27.63 29.27 28.19 25.87 22.50 19.86 25.02 31.12 33.04 35.05 34.45 35.01 36.15 34.52 32.48 32.10 32.39 33.20 33.96 35.19 36.57 36.90 37.07 37.75 40.45 40.42 40.48 40.95 40.95 40.77 41.26 42.22 41.61 41.57 41.78 41.64 41.84
37.42 32.02 23.90 28.35 31.94 33.75 32.12 29.73 29.98 24.55 23.11 23.78 24.99 24.42 33.89 34.44 36.13 36.09 35.35 37.14 34.46 33.73 32.15 32.10 32.84 33.55 34.19 35.56 36.19 36.51 37.25 39.61 40.29 40.16 39.60 39.27 39.18 39.08 38.75 39.09 39.26 39.69 38.68 38.96
35.87 25.46 17.05 23.14 28.13 30.14 29.62 31.25 31.56 29.56 26.63 24.30 21.47 25.35 34.14 34.18 35.25 35.86 35.84 36.11 34.03 32.57 31.26 31.99 32.01 32.61 33.34 34.55 35.56 35.98 36.33 36.81 39.20 39.63 39.10 38.50 38.06 37.86 36.79 36.85 37.02 37.40 37.04 36.80
39.08 31.34 27.12 23.96 27.02 27.74 25.74 27.94 30.69 29.65 22.91 24.09 26.11 27.16 32.40 32.19 33.66 34.99 35.67 35.56 33.39 33.40 33.08 31.79 31.34 31.87 33.02 34.25 34.81 35.20 35.69 36.15 36.68 36.97 36.78 36.23 36.23 35.69 35.71 36.38 36.87 36.88 36.68 36.13
36.03 23.52 26.29 27.36 28.79 28.19 27.91 28.13 28.43 28.34 31.13 25.73 27.43 30.27 36.16 36.69 33.55 35.74 36.59 35.96 33.29 33.07 32.87 32.45 31.95 31.51 32.14 32.86 34.19 35.29 35.49 35.85 35.96 35.43 34.94 34.48 34.83 35.03 35.19 35.09 35.23 35.85 35.91 35.23
35.06 28.14 24.24 19.91 27.24 27.03 25.87 27.27 29.32 29.82 31.42 31.51 31.74 30.61 39.49 36.65 34.55 33.53 35.42 36.57 34.31 34.12 34.24 33.80 33.65 33.05 32.83 33.58 33.52 35.19 35.07 35.18 35.40 34.59 34.16 34.50 34.23 33.91 33.44 33.66 33.75 34.19 34.02 33.80
31.84 29.32 26.06 24.89 24.15 20.59 19.03 24.21 28.07 30.42 30.47 32.61 27.90 34.21 35.57 35.16 36.14 37.88 35.84 37.92 37.16 35.53 35.24 34.44 34.32 34.29 34.00 33.88 34.85 34.02 34.43 34.93 34.39 33.92 34.10 33.84 33.45 32.60 32.13 31.98 31.85 32.01 32.62 32.83
28.47 28.74 28.49 19.24 19.97 16.50 29.37 29.94 31.79 31.60 33.80 35.32 35.41 37.89 38.94 38.30 39.91 38.01 38.51 38.97 39.32 37.55 36.11 35.96 35.64 35.29 34.82 34.06 33.81 34.00 34.31 34.03 33.54 33.13 33.13 32.98 32.22 31.19 30.77 30.41 30.08 30.48 30.81 30.36
32.39 29.68 23.05 20.15 13.39 24.67 30.55 32.59 28.77 27.95 30.73 35.18 35.31 37.36 38.60 37.21 34.83 37.47 38.19 39.70 41.02 40.20 37.98 37.75 37.34 36.45 35.18 34.49 34.65 34.53 33.28 32.94 32.52 32.12 31.92 31.60 31.00 29.83 29.19 28.83 28.62 29.06 29.59 29.10
31.49 31.84 29.76 21.38 14.03 13.65 28.36 28.18 30.81 33.29 27.89 36.35 35.93 36.18 36.35 34.34 31.30 35.74 38.59 37.93 40.20 40.96 38.77 37.56 37.03 36.38 35.37 35.11 34.79 33.83 32.98 32.50 32.03 31.26 31.41 30.77 30.20 29.26 28.17 28.26 28.46 29.02 28.80 30.13
27.98 28.28 27.70 20.94 21.12 22.28 30.67 30.35 29.40 24.98 31.79 31.72 33.45 34.92 34.86 33.59 37.06 36.53 35.27 36.89 38.62 39.73 37.28 37.43 36.64 35.78 35.80 34.83 34.73 32.99 32.50 32.26 32.84 31.08 30.71 30.26 29.86 29.37 28.44 28.18 28.74 28.45 28.90 29.47
27.52 26.05 25.53 27.31 24.80 20.63 31.88 28.57 29.34 34.00 31.26 31.57 32.19 33.70 34.50 35.44 34.86 33.85 34.74 34.75 36.43 35.87 35.72 36.27 35.67 34.98 35.15 34.41 34.18 32.77 31.89 33.55 31.21 30.70 30.21 29.08 28.24 29.22 28.85 27.51 27.65 27.93 28.18 27.19
25.78 29.10 26.03 29.46 28.56 32.48 30.16 32.69 33.97 32.16 32.70 31.36 30.91 31.61 33.45 35.32 35.00 34.63 34.18 35.05 35.78 35.14 34.46 34.12 35.34 32.84 33.28 33.79 34.42 32.24 33.09 31.41 30.97 29.56 27.60 25.54 24.91 27.48 27.84 27.26 26.86 27.02 27.07 26.64
27.72 32.19 27.36 29.04 31.85 32.53 32.48 33.96 32.33 32.78 32.49 32.62 32.89 32.83 32.44 33.37 35.64 33.85 32.90 32.92 33.27 32.36 32.21 33.15 32.05 32.00 31.83 33.01 33.10 33.87 32.29 31.98 30.81 29.89 27.06 24.63 25.72 25.15 24.85 27.11 27.95 27.35 26.51 25.74
28.08 31.26 27.25 27.01 29.87 31.27 34.18 34.72 36.40 36.52 33.31 31.85 31.67 32.99 33.61 32.99 32.40 33.53 32.66 31.72 32.33 32.47 32.09 31.81 32.64 32.31 32.25 32.35 32.49 30.20 31.38 31.20 30.59 29.78 27.21 26.06 26.46 26.21 25.79 26.18 27.01 27.65 27.63 28.97
29.30 28.45 29.70 28.56 33.28 35.90 37.98 37.59 37.86 33.82 34.35 34.76 32.66 31.21 31.23 31.72 32.04 32.13 32.91 32.76 31.91 32.16 30.91 31.23 31.12 31.34 31.55 31.41 31.74 30.07 31.92 32.08 31.03 28.62 26.38 26.63 25.97 24.65 25.91 26.01 22.87 30.83 30.99 32.24

GFSCGP_sfc_wetblb_276.txt.gz
Wetbulb
40.66 34.57 28.59 35.16 36.94 37.03 34.45 31.90 29.85 33.71 37.83 34.45 33.98 34.83 37.16 38.48 38.13 37.19 37.29 37.24 36.64 37.44 37.62 37.92 38.26 38.02 38.03 39.36 40.36 41.61 42.85 45.33 45.64 45.54 45.19 45.68 45.62 46.82 47.87 48.86 50.02 50.94 50.09 50.91
35.53 31.83 37.13 39.65 38.55 36.64 34.12 30.51 29.50 33.91 36.56 34.41 32.79 33.74 37.55 37.70 37.10 38.30 38.68 37.38 36.65 37.78 36.89 37.17 37.45 36.99 36.99 38.35 39.81 41.75 43.14 44.73 45.30 45.56 45.57 46.49 46.60 47.26 47.96 49.13 50.22 52.19 50.56 51.64
33.16 35.72 40.07 38.07 35.53 34.63 32.14 29.68 28.41 29.95 34.08 34.04 31.89 29.21 31.00 37.21 37.34 38.73 38.41 38.76 38.25 38.07 35.94 35.63 36.82 35.79 36.50 37.82 38.99 42.38 44.23 44.53 44.98 45.19 45.85 47.43 49.69 47.94 47.69 48.31 49.35 51.85 53.08 53.42
35.31 37.96 37.13 34.29 34.62 35.00 29.32 36.00 33.98 32.47 29.19 22.46 30.84 21.62 25.09 32.87 35.42 36.88 38.27 37.41 37.01 35.62 35.75 35.92 35.65 35.54 36.26 38.08 39.43 42.04 43.64 44.40 44.66 44.93 44.87 45.52 48.52 48.81 50.70 51.22 52.17 52.34 53.26 54.64
33.19 34.55 33.32 33.26 34.41 36.10 32.51 35.45 33.41 31.78 28.96 27.78 25.78 20.54 27.03 31.18 30.51 34.67 37.09 37.44 36.72 34.83 35.01 34.96 35.20 36.41 37.38 38.30 38.55 40.03 43.77 43.77 44.03 44.15 44.50 45.71 47.93 49.82 52.92 54.78 53.29 51.59 55.29 57.90
34.15 37.66 36.15 35.25 35.98 36.33 36.91 34.43 33.14 31.04 28.42 18.84 21.49 22.58 25.38 24.81 31.05 31.49 36.26 37.98 35.70 34.36 34.52 35.39 35.71 36.33 36.75 37.71 38.16 39.72 42.94 43.02 43.45 43.48 43.61 44.19 46.25 47.85 50.84 52.38 52.88 54.47 55.78 57.69
32.73 33.00 35.41 37.06 33.37 35.61 34.70 29.25 21.47 19.50 19.29 20.12 27.29 23.88 28.41 31.70 36.54 34.98 36.10 36.64 33.96 33.99 33.34 33.65 33.28 33.76 35.77 36.81 37.44 40.04 42.46 41.80 42.59 42.83 42.78 43.33 45.07 46.65 48.36 49.68 50.25 50.63 51.28 52.19
26.87 25.80 32.91 35.88 33.82 31.34 30.75 29.22 23.32 18.11 19.46 21.89 26.06 22.96 28.66 33.46 36.64 36.86 37.34 35.45 33.66 32.99 33.55 33.12 33.57 33.61 35.24 36.72 37.06 39.92 41.72 41.21 41.95 42.32 42.49 42.98 44.16 45.31 46.07 47.69 48.77 49.19 49.03 49.62
28.15 28.36 34.66 35.08 35.09 34.39 31.26 27.51 29.87 24.76 18.78 20.04 23.14 27.01 31.69 33.09 32.57 33.64 34.21 32.86 32.08 32.31 32.12 32.26 32.98 33.89 35.33 36.09 36.56 38.00 41.23 41.28 41.44 41.87 42.42 41.91 42.86 43.37 44.19 45.40 46.08 46.79 47.64 47.42
34.64 28.33 33.73 34.80 35.06 34.41 31.60 32.91 24.69 22.93 15.06 16.19 22.86 24.38 26.19 29.56 31.95 33.13 32.33 31.57 31.68 31.79 31.48 31.43 32.05 33.47 35.12 35.69 36.27 37.19 41.19 40.93 40.84 41.20 41.14 40.82 40.99 42.66 43.20 43.55 43.55 44.16 45.19 45.85
36.36 32.72 30.08 32.47 30.28 29.03 28.87 27.75 28.67 27.18 25.62 22.31 19.58 25.12 30.14 31.05 33.16 33.20 33.51 33.74 32.28 31.23 30.93 30.96 31.66 33.18 35.05 35.61 35.88 36.27 39.64 40.69 39.89 40.17 39.83 39.71 39.53 39.57 40.58 40.78 40.76 41.26 42.25 43.02
37.04 32.97 27.02 29.61 31.46 32.29 30.30 29.74 29.48 25.11 22.55 23.43 24.67 25.00 33.49 33.33 33.94 34.22 34.30 35.95 34.71 32.02 31.33 30.68 31.60 32.60 34.02 34.83 35.45 35.62 38.70 39.97 39.97 39.89 39.44 39.09 39.29 39.42 38.47 38.02 38.22 38.73 38.20 38.47
35.41 24.39 19.04 23.61 27.97 28.97 28.71 29.69 29.79 27.95 26.53 23.49 21.51 26.49 33.40 32.14 33.72 33.95 33.99 34.48 35.01 31.78 30.34 30.57 30.77 31.79 32.98 34.08 35.07 35.24 37.89 38.54 39.52 39.54 38.86 38.21 37.85 37.93 37.45 37.31 37.16 36.41 36.43 36.40
37.85 28.45 26.44 26.09 27.88 27.11 26.12 27.92 29.33 28.42 22.76 24.15 26.35 27.52 31.19 31.95 32.92 34.09 34.15 34.92 33.28 32.50 31.76 30.74 30.12 31.16 32.22 33.78 34.46 34.56 35.11 36.77 38.03 38.05 37.31 36.01 35.17 34.61 34.42 35.29 35.35 35.05 34.94 34.83
35.41 31.63 25.78 27.13 28.34 27.72 27.37 27.30 28.18 27.26 30.14 26.02 27.76 29.87 36.13 36.63 35.70 34.31 35.21 35.09 32.45 32.07 31.26 31.44 31.17 31.39 31.37 32.46 33.91 34.55 34.79 35.25 35.34 34.50 34.05 33.47 33.66 33.89 33.64 33.49 33.66 33.92 33.99 33.82
35.12 29.78 26.23 20.44 26.50 26.88 24.86 27.14 28.40 29.43 31.21 30.77 30.61 30.42 38.31 37.63 34.84 33.23 34.95 35.20 33.32 33.14 32.97 32.82 32.64 32.45 32.21 33.25 33.67 34.76 34.39 34.50 34.73 33.75 33.11 33.09 32.98 32.55 32.12 32.22 32.32 32.38 32.00 31.94
31.74 28.28 28.16 27.83 24.50 20.09 21.27 24.75 27.52 29.85 30.07 32.00 27.62 34.03 35.81 35.02 35.49 37.33 36.73 35.54 36.25 35.11 34.23 33.36 33.33 33.42 33.58 33.72 34.85 34.64 34.49 34.43 33.66 33.13 32.78 32.42 31.83 31.18 30.88 31.15 31.11 30.47 30.20 30.53
30.93 30.97 29.50 24.28 16.16 16.15 29.89 28.91 31.45 31.14 33.90 34.18 34.04 36.98 38.28 37.29 37.78 38.99 37.15 36.60 37.46 37.25 35.64 35.20 35.02 34.47 34.38 34.36 34.19 35.06 34.33 34.26 33.23 32.39 32.18 31.76 30.80 30.11 29.93 29.91 29.94 29.19 28.94 28.72
34.87 31.12 26.04 23.88 15.73 24.36 29.98 30.92 27.85 27.80 31.94 34.72 34.88 36.43 37.56 37.73 34.70 38.11 37.78 38.77 39.85 39.62 38.46 37.48 36.98 36.37 35.14 34.07 34.78 34.92 33.57 33.43 32.84 32.22 31.48 31.05 30.39 29.43 28.74 28.71 28.66 28.45 28.44 28.14
32.42 33.72 30.54 21.34 16.33 15.50 28.13 28.12 29.63 32.36 27.58 35.83 35.66 35.99 35.52 33.13 28.91 35.08 37.94 37.27 38.41 39.84 40.00 37.63 37.02 36.59 34.87 34.20 34.81 34.34 33.70 32.72 32.46 32.36 32.32 30.88 29.99 29.08 28.12 28.03 28.28 28.68 28.32 29.25
27.39 28.91 27.89 22.66 20.32 21.92 30.29 29.26 30.11 24.51 31.23 32.22 33.96 34.28 33.86 32.54 36.22 36.96 36.19 35.43 36.79 38.20 38.02 37.36 36.59 35.67 35.20 34.74 34.67 33.91 33.78 32.84 33.63 32.61 31.74 30.97 30.03 29.23 28.20 27.74 28.11 28.35 28.61 29.11
27.77 25.83 25.56 26.39 24.99 22.39 31.89 28.54 29.60 34.40 30.06 31.26 31.88 33.16 33.64 34.77 35.36 35.38 35.20 36.18 35.77 36.23 34.80 36.05 35.45 34.99 35.12 34.31 34.43 33.75 32.94 34.53 32.57 31.57 31.26 30.38 28.91 29.36 28.48 27.11 26.91 27.08 28.49 26.93
27.53 29.64 26.05 30.15 29.04 32.74 31.46 33.64 34.79 32.71 33.49 31.07 30.84 32.07 33.04 32.63 33.53 34.98 34.73 34.64 36.26 35.21 33.05 33.31 35.01 32.82 33.46 33.56 34.78 33.12 33.99 32.72 31.59 30.69 30.02 28.78 27.86 28.08 27.93 27.58 26.75 26.27 26.97 26.93
28.74 31.08 28.51 29.44 32.09 31.99 32.35 33.38 32.39 33.18 33.22 32.91 32.97 32.56 32.14 32.57 32.78 32.61 32.86 32.57 32.93 32.61 32.33 31.52 31.44 31.79 32.06 32.69 33.46 34.50 33.24 32.46 31.88 31.62 29.72 27.91 28.06 27.05 26.96 28.27 28.36 27.93 26.92 26.32
29.37 31.17 27.07 26.17 30.11 29.46 32.79 34.19 36.81 35.63 33.19 32.24 31.80 32.11 32.86 32.52 32.30 31.47 31.86 32.34 32.18 32.73 31.68 31.85 32.34 32.11 32.34 32.27 32.87 32.77 31.14 32.17 31.86 31.79 30.02 28.47 28.92 27.51 26.79 27.76 28.09 28.28 28.51 29.25
29.73 28.63 29.62 29.17 33.14 34.10 35.59 36.73 36.35 33.89 34.71 34.99 33.02 32.28 31.68 30.81 31.55 30.87 31.72 32.06 32.10 31.73 31.12 30.67 31.52 31.57 32.01 31.76 32.45 30.70 31.50 32.71 32.54 30.73 29.42 29.09 28.37 26.92 27.44 26.93 24.55 31.10 31.05 31.59

GFSCGP_sfc_wetblb_279.txt.gz
Wetbulb
39.52 33.69 28.51 33.79 36.05 35.60 33.61 31.64 30.07 32.64 36.42 33.68 33.48 34.30 36.93 38.06 36.90 36.67 36.34 36.97 36.76 36.81 37.60 37.31 37.11 36.61 36.98 38.29 39.33 40.65 41.48 44.16 44.79 45.00 44.75 45.16 45.36 46.84 47.78 48.56 49.40 49.86 50.70 49.62
35.23 32.17 36.15 37.25 37.25 35.77 33.08 30.13 29.13 32.55 35.06 33.47 32.01 32.62 36.87 36.57 35.38 37.33 37.52 36.79 37.20 36.03 35.96 36.54 35.69 35.69 35.98 37.17 38.55 40.39 41.74 44.53 44.70 45.25 45.14 45.93 46.29 47.54 48.45 49.01 49.46 50.35 51.92 49.74
32.78 34.80 39.09 37.29 34.78 33.86 31.58 29.20 27.45 29.63 32.97 32.38 30.22 29.38 29.87 34.25 36.72 37.15 36.82 37.90 38.04 36.69 36.13 35.24 35.17 34.31 35.44 36.85 37.65 39.93 41.22 43.21 44.18 45.08 45.37 46.17 48.19 50.22 48.35 48.81 49.00 50.16 52.00 51.66
34.26 36.90 36.77 34.11 33.79 33.97 28.86 34.51 32.90 31.77 28.76 23.45 29.61 22.66 26.04 30.23 33.35 35.86 36.99 36.68 36.18 35.95 35.41 35.08 34.15 33.52 35.41 37.09 38.10 39.31 41.21 44.11 44.36 44.79 44.21 44.35 46.19 47.17 50.66 51.92 51.83 51.75 51.08 52.73
32.30 33.68 32.75 32.24 33.41 34.76 31.34 34.59 32.54 31.31 28.70 27.45 25.54 21.09 27.19 29.40 30.23 32.91 35.94 36.39 35.78 34.68 34.42 34.14 33.38 35.04 36.43 37.28 37.50 38.52 42.86 43.56 43.62 44.11 44.09 44.53 45.44 47.65 51.81 54.52 53.06 50.06 52.79 55.55
32.58 36.39 35.35 34.08 34.77 34.52 35.85 33.36 32.12 30.25 27.93 21.86 21.36 22.43 26.10 24.18 29.85 30.35 34.84 36.72 36.59 34.03 33.62 33.91 33.87 35.09 36.13 36.96 37.52 38.46 42.42 42.26 43.22 43.58 43.68 44.05 44.22 45.67 49.58 51.37 52.44 52.98 54.37 55.41
31.42 32.17 34.56 36.18 32.52 34.59 33.04 27.85 21.22 20.66 20.18 22.34 26.57 24.11 29.13 31.37 34.20 33.87 33.83 36.55 35.60 33.52 32.71 32.24 31.01 33.23 35.34 36.17 37.10 38.97 40.68 41.34 42.59 42.79 42.98 43.37 43.87 45.22 46.95 49.55 50.50 50.98 51.30 51.97
26.35 24.52 32.57 35.52 33.22 30.69 29.66 28.16 23.48 18.54 19.63 22.06 26.32 23.46 29.32 32.47 34.23 35.51 35.80 36.58 34.04 32.44 32.51 31.91 31.84 33.15 34.98 35.89 37.02 38.06 39.87 40.83 41.82 41.99 42.06 42.87 43.55 43.96 45.58 47.44 48.50 48.66 49.31 50.49
26.85 27.75 33.44 34.37 34.41 33.04 29.63 27.01 29.00 24.24 17.70 19.74 23.48 27.04 31.43 31.37 32.94 33.16 33.43 33.00 31.92 31.87 31.54 31.40 31.77 33.02 34.62 35.38 36.43 37.46 40.67 40.31 40.88 40.84 41.01 40.93 42.22 42.32 42.99 44.87 46.65 46.81 47.67 47.74
32.92 26.97 32.06 33.57 34.48 33.20 30.51 32.00 24.71 23.04 15.42 16.41 22.92 24.21 27.00 29.19 31.72 32.89 32.56 31.83 31.50 31.34 31.08 30.95 31.23 32.29 34.26 34.86 35.78 37.75 41.52 40.11 40.77 40.63 40.59 40.48 40.13 40.54 40.93 41.13 42.66 44.04 45.57 46.50
34.65 31.86 28.93 32.28 30.14 29.35 28.77 27.27 27.86 26.67 24.79 21.93 19.40 27.35 30.64 31.40 32.37 33.11 33.00 33.64 32.10 31.06 30.71 30.47 30.81 31.94 34.22 34.59 35.17 36.53 38.78 40.39 39.87 40.10 40.28 40.14 39.93 39.96 39.66 39.07 39.52 39.77 40.61 42.00
35.76 31.91 26.17 28.78 31.00 31.60 29.86 29.21 28.60 24.83 22.47 22.73 23.94 25.41 33.33 31.82 32.88 33.35 33.85 34.48 32.81 31.76 30.95 30.08 30.58 31.61 33.29 33.88 34.69 35.74 39.89 39.56 39.79 39.92 39.73 39.28 39.87 39.73 39.11 38.32 38.20 39.07 39.02 39.73
34.62 24.60 20.62 27.73 28.23 28.36 28.49 29.39 29.48 27.62 26.44 23.06 21.20 27.33 33.27 31.54 32.25 33.48 33.04 33.39 33.86 31.73 29.95 29.99 29.75 30.83 32.52 33.30 34.34 35.32 38.46 38.72 39.27 39.03 38.51 37.93 37.24 37.52 37.26 37.01 37.16 37.15 36.98 36.23
37.58 27.89 27.24 27.84 28.05 27.35 26.03 27.98 28.25 28.44 22.13 24.44 24.53 27.71 32.50 31.75 32.20 33.22 33.18 33.30 33.62 32.48 31.11 30.04 29.27 30.37 31.56 33.46 33.68 34.36 35.81 37.34 38.05 37.45 36.74 35.84 35.30 35.45 34.30 34.57 34.38 34.39 34.80 34.73
34.24 25.13 26.11 27.43 27.76 27.44 27.60 27.17 27.50 26.84 30.40 26.47 29.60 30.16 36.69 36.25 34.11 34.22 34.85 34.18 33.44 32.09 30.80 30.83 30.62 30.59 30.38 32.28 33.08 34.03 34.81 35.24 34.89 33.71 33.33 32.77 32.84 32.91 32.79 32.60 32.34 32.69 33.15 32.57
33.45 23.77 24.72 21.93 26.89 27.25 24.56 27.17 27.85 29.06 30.30 29.07 29.95 29.97 37.80 35.57 33.53 32.89 34.16 34.22 33.94 33.44 32.82 32.33 32.03 31.50 31.21 32.93 33.51 33.93 34.12 34.52 34.18 33.19 32.42 32.49 32.05 31.66 31.20 31.29 31.10 31.26 30.96 30.90
31.18 24.90 26.53 29.43 24.24 20.99 23.70 24.57 27.96 28.90 29.22 32.00 27.21 34.73 34.92 34.01 35.47 36.21 36.19 33.99 35.41 35.30 34.43 33.23 33.02 32.96 33.17 33.07 34.94 34.23 33.98 33.70 33.34 32.61 32.01 31.51 31.14 30.61 30.25 30.00 29.87 29.69 29.25 29.56
30.08 27.86 29.53 26.27 22.28 23.02 30.34 28.93 31.20 31.68 34.76 33.66 33.76 36.59 37.69 35.85 35.58 36.04 37.19 36.80 35.62 37.06 35.75 35.00 34.91 34.37 34.08 33.66 34.49 34.80 33.58 33.51 32.78 31.98 31.33 30.66 30.35 29.89 29.87 29.35 28.77 28.18 28.19 28.22
36.52 32.11 27.24 25.46 16.89 26.05 31.07 28.65 28.29 28.53 31.16 34.80 35.00 36.62 38.20 35.45 34.28 36.57 38.10 38.33 39.75 38.67 38.06 37.18 36.85 36.54 35.07 33.67 35.04 35.18 33.33 32.97 31.67 31.53 31.41 30.72 30.56 29.71 29.21 28.84 27.92 27.56 27.55 27.68
34.20 35.71 32.57 22.28 18.75 17.62 28.14 28.03 29.53 33.03 28.74 35.44 36.22 36.61 34.52 33.02 29.00 32.85 35.35 35.42 36.76 37.46 37.95 36.70 36.57 36.70 34.84 34.15 34.90 35.16 33.81 33.04 32.52 32.02 31.68 31.06 30.21 29.90 28.93 29.07 28.30 28.34 27.87 28.56
28.31 30.00 28.60 24.63 18.93 21.82 29.52 28.98 30.25 26.24 31.62 32.87 34.74 34.90 33.27 32.09 34.63 35.85 35.88 36.02 36.16 37.14 37.58 37.08 36.04 35.81 35.73 34.26 34.68 34.40 34.45 33.42 34.21 33.25 31.15 30.09 29.95 29.43 28.90 28.73 27.85 28.20 28.04 28.43
28.40 27.39 27.42 25.92 25.35 23.37 30.40 28.41 29.69 34.40 30.54 31.64 32.10 33.12 33.33 34.20 34.87 34.24 34.72 34.57 34.92 35.60 35.44 35.49 35.25 35.24 35.48 33.77 34.09 33.83 33.99 35.41 33.64 32.13 31.43 29.98 28.02 29.09 28.50 27.21 27.09 27.77 28.22 26.84
28.38 31.26 28.35 30.44 29.00 32.74 30.84 31.40 32.94 32.72 32.91 30.49 31.69 31.93 32.89 31.90 32.10 33.83 33.94 34.15 34.19 34.87 33.78 32.56 33.75 32.01 33.22 33.20 34.34 33.44 34.71 33.74 32.27 31.65 31.12 29.10 26.66 27.30 27.07 27.29 26.67 26.89 27.26 26.91
28.92 30.68 29.04 30.70 32.12 31.69 31.96 32.72 32.78 34.23 33.93 31.73 32.12 32.53 32.12 32.13 32.49 31.55 31.30 31.80 32.09 32.37 32.59 31.45 31.28 31.04 31.34 32.60 33.35 34.89 33.85 33.28 32.75 32.27 31.04 29.23 28.62 27.00 25.51 27.21 27.73 28.00 27.32 26.72
29.93 31.20 28.63 27.85 29.98 29.89 31.88 33.70 36.91 35.89 33.95 32.19 31.14 32.11 33.23 31.52 31.69 30.95 31.32 31.43 31.88 31.81 32.00 30.97 30.88 31.35 31.67 31.54 32.80 33.34 31.96 32.81 32.38 32.50 31.27 29.46 29.99 28.43 27.15 27.79 28.11 28.29 29.01 29.82
29.25 29.05 30.30 30.76 33.82 34.16 35.77 38.12 36.57 35.72 34.56 34.91 33.46 32.18 32.10 31.28 31.81 30.49 31.16 31.08 31.14 31.13 29.34 28.97 29.62 29.79 30.87 31.20 32.16 31.05 32.34 33.12 32.75 31.49 30.90 30.39 29.87 27.72 28.35 27.88 26.62 31.79 31.96 32.24

GFSCGP_sfc_wetblb_285.txt.gz
Wetbulb
37.76 33.28 30.07 33.77 34.45 34.81 34.44 32.68 31.68 32.87 35.70 34.24 33.54 33.91 36.35 38.82 37.32 38.11 37.86 37.91 38.50 39.11 41.09 40.35 38.82 39.75 38.29 39.44 40.15 40.77 41.52 43.07 43.76 44.84 45.08 45.68 45.96 47.59 48.67 49.92 49.97 49.86 50.08 50.19
34.34 31.26 35.11 36.52 35.71 34.77 33.05 31.40 30.61 32.97 33.96 33.80 31.87 32.73 37.22 35.95 35.21 35.80 36.56 36.48 37.71 38.53 38.18 37.29 38.22 38.98 36.94 37.87 39.40 40.64 41.80 42.78 44.13 45.08 45.52 45.87 46.40 47.27 48.39 50.34 50.55 50.23 50.12 50.61
32.38 34.05 36.77 36.22 34.08 33.26 31.83 30.51 28.77 31.31 32.64 32.22 29.60 31.17 33.26 34.66 36.88 37.55 37.92 37.20 37.77 38.51 37.58 36.44 37.01 38.03 37.04 37.99 38.69 40.52 41.57 42.96 44.24 45.20 45.69 46.56 48.06 49.08 49.96 50.80 50.03 50.13 50.41 51.08
33.63 35.58 35.58 33.22 33.00 33.96 30.67 33.04 32.09 31.20 29.73 25.79 30.53 25.30 29.53 31.45 32.60 35.22 37.07 36.76 37.20 37.58 37.55 36.42 36.47 36.58 37.73 38.22 39.46 40.64 41.51 43.14 44.79 45.21 44.92 44.84 45.22 45.92 48.89 52.56 52.32 50.87 51.13 51.87
32.19 33.48 32.63 32.05 33.40 34.66 32.17 33.67 31.81 31.03 29.50 27.58 26.87 23.55 29.76 30.36 30.95 32.88 36.52 36.74 36.44 36.75 36.74 35.45 35.41 36.08 38.41 38.43 39.75 40.50 41.51 43.22 44.23 44.39 44.65 44.75 45.19 47.04 49.85 50.85 53.28 51.11 51.45 53.11
30.98 35.21 34.68 34.21 33.84 33.31 34.80 32.71 31.12 29.46 28.07 21.62 23.63 24.18 29.44 27.94 31.14 31.93 35.20 36.66 35.83 35.06 34.81 34.71 35.22 36.32 37.73 38.37 39.81 40.57 41.16 41.92 43.40 43.63 43.87 44.06 44.58 45.87 47.07 47.74 49.74 53.14 55.30 55.63
30.73 31.10 33.30 34.95 31.88 34.11 32.15 29.06 23.87 21.60 20.40 23.56 26.66 24.75 30.09 33.00 33.55 33.90 35.02 36.49 35.92 34.72 33.63 33.53 33.36 34.15 37.31 37.78 39.07 40.36 41.43 41.49 42.62 42.81 42.82 43.04 44.01 45.03 45.65 47.09 47.58 48.53 52.74 54.48
26.92 23.86 31.28 33.94 32.41 30.60 29.37 29.55 25.79 20.13 19.75 22.30 26.91 23.65 31.73 33.54 34.10 35.06 35.27 36.41 36.14 34.27 33.64 33.26 32.74 34.14 36.57 37.61 38.77 39.67 41.13 41.01 40.91 42.18 42.14 42.31 43.02 44.01 44.85 45.87 46.71 47.40 48.77 50.11
26.74 25.97 31.27 32.65 33.31 32.68 29.28 26.70 29.74 24.43 17.12 19.88 25.19 28.72 33.17 32.18 32.32 33.70 34.40 34.88 35.30 34.17 32.95 32.69 32.15 33.91 36.35 37.25 38.17 39.11 39.98 40.43 40.61 41.66 42.00 41.61 41.92 42.29 42.93 44.63 45.34 45.55 46.84 48.51
31.70 26.51 29.88 31.42 32.72 32.06 29.91 31.35 25.37 23.43 18.13 16.96 23.93 25.30 29.78 31.27 32.82 31.88 33.51 33.63 34.53 34.12 32.57 32.00 31.50 32.84 35.25 36.52 37.27 38.99 40.12 40.03 41.12 41.46 41.61 41.16 41.15 41.28 41.93 43.65 43.47 44.00 44.43 46.14
32.32 29.98 27.30 30.35 28.72 27.94 27.52 26.54 27.00 26.83 24.96 22.02 19.82 27.91 32.02 32.57 33.12 32.96 33.15 34.51 34.32 33.77 32.51 31.76 31.19 32.11 35.13 35.93 36.55 38.30 39.19 40.00 40.64 40.62 40.99 40.80 40.73 40.59 40.79 41.01 41.71 42.46 43.34 44.18
33.78 29.62 23.42 26.24 29.01 30.30 28.53 28.15 27.66 24.83 21.91 22.07 23.23 26.34 34.02 33.44 32.92 33.52 34.12 34.74 34.53 34.17 32.95 31.69 31.03 31.29 33.79 35.18 36.10 37.86 38.67 40.03 39.27 39.89 39.89 39.61 40.35 40.36 39.89 39.71 40.07 41.01 41.19 42.00
33.59 23.70 16.11 22.16 26.25 26.81 27.71 28.68 28.68 27.29 26.51 22.11 22.16 27.37 34.36 33.34 33.71 33.18 33.75 33.75 34.48 33.62 32.21 31.33 29.90 30.55 33.19 34.36 35.49 36.90 37.81 39.15 38.77 38.34 39.11 38.78 38.19 38.17 38.25 38.41 39.44 40.23 40.11 39.58
38.04 28.56 27.01 25.22 27.97 27.21 25.72 27.49 28.70 28.30 21.74 24.75 24.29 29.45 33.88 34.54 33.77 33.10 33.57 33.89 33.56 33.58 32.43 31.09 29.76 30.10 32.47 33.99 35.00 35.94 36.64 38.30 38.85 37.07 36.81 36.06 36.73 36.73 36.74 36.85 36.79 37.30 37.61 37.20
34.58 24.01 26.03 27.45 27.40 28.19 28.20 27.59 27.90 27.73 30.48 27.09 28.57 28.56 36.92 39.23 35.59 35.94 34.76 34.00 33.68 33.54 32.27 31.88 31.21 30.49 31.11 33.16 34.24 35.02 36.12 36.03 36.10 35.38 34.52 33.87 33.82 34.26 35.01 34.65 34.44 34.51 34.53 34.01
33.80 28.07 25.27 22.78 26.95 26.46 23.83 27.55 27.92 29.37 30.24 27.88 30.10 29.98 37.83 36.90 33.26 32.43 34.27 34.42 34.20 34.17 34.71 33.97 32.98 31.38 30.97 33.19 34.23 34.75 35.54 35.15 34.59 34.09 33.52 33.10 33.08 32.93 32.98 32.94 33.28 33.17 32.70 32.55
31.52 27.87 28.35 20.86 24.35 22.97 25.77 28.26 26.84 27.32 27.85 31.57 27.62 34.75 33.90 33.32 33.40 34.44 35.33 35.08 34.38 34.95 35.81 35.38 34.20 33.28 33.27 33.12 35.26 34.97 35.87 34.88 33.91 33.60 32.98 32.51 32.24 32.11 31.99 31.78 31.94 31.99 31.73 31.87
31.47 29.43 29.88 20.09 21.50 24.88 31.72 28.04 31.33 32.66 33.11 32.18 32.25 35.22 35.63 35.31 34.93 36.17 36.29 36.54 36.24 35.84 35.74 36.40 35.83 34.88 34.45 33.89 35.03 35.95 35.45 34.85 33.90 33.23 32.63 32.05 31.71 31.27 30.83 30.67 30.36 29.95 30.04 30.56
36.17 32.95 30.26 26.55 25.11 27.71 30.02 27.76 29.16 29.84 32.09 35.49 33.75 37.38 38.36 33.77 33.42 35.12 35.97 35.66 36.12 36.39 36.59 36.29 36.52 36.00 35.08 33.55 35.24 35.50 34.80 35.08 33.79 33.35 32.78 32.17 31.72 30.96 30.18 29.84 29.13 28.79 29.07 29.15
34.71 35.79 32.07 26.47 26.18 22.13 27.83 28.88 29.64 33.49 28.90 37.01 37.62 37.81 35.99 33.60 30.28 31.80 34.29 33.67 34.95 35.64 36.12 36.36 36.02 34.82 34.32 33.70 34.78 35.12 35.06 34.92 34.38 34.23 33.74 32.88 31.86 31.62 30.43 30.00 28.95 28.75 28.95 28.68
29.04 30.05 28.09 26.95 26.40 23.34 30.30 28.70 30.38 25.55 30.81 33.61 35.59 36.30 33.03 33.18 34.96 34.90 33.91 33.64 34.15 34.87 35.57 36.31 35.14 34.36 34.64 33.42 34.46 34.44 35.22 35.26 37.31 36.01 33.29 31.76 31.39 31.27 31.40 30.07 28.39 28.58 28.37 28.58
29.27 28.56 27.44 29.45 26.64 23.68 28.55 29.42 30.03 33.19 32.31 30.94 32.41 33.63 33.72 33.35 34.40 32.84 32.47 32.83 33.55 33.88 34.04 35.22 34.58 33.49 33.35 32.58 33.50 33.65 34.19 36.71 36.52 34.80 33.62 32.00 30.91 30.62 30.06 29.66 27.95 27.93 28.33 27.34
23.87 22.57 22.53 29.78 29.76 32.19 29.58 30.60 32.81 32.79 31.71 30.67 29.90 30.84 34.16 33.18 31.87 31.57 33.09 32.79 32.80 32.56 32.28 32.68 33.46 32.52 31.69 31.63 33.35 32.82 34.57 34.27 34.06 33.59 33.04 32.24 30.67 30.11 29.85 29.53 28.12 27.62 28.01 27.88
23.31 26.35 22.17 25.33 28.56 27.70 31.52 31.28 32.32 34.92 34.51 34.02 31.75 29.82 30.00 30.43 31.88 31.12 31.87 31.94 31.70 31.69 31.53 31.85 31.66 31.29 30.77 30.33 31.42 33.28 32.76 33.11 32.95 33.26 32.83 32.57 31.00 30.01 29.06 29.93 29.70 29.51 28.15 27.79
22.25 23.84 23.30 22.70 27.06 28.19 29.85 29.97 31.67 32.52 34.94 35.35 34.32 32.50 31.51 30.94 31.12 31.59 31.56 31.54 31.38 30.99 30.71 30.84 31.03 31.10 31.13 30.41 30.64 30.76 30.96 32.79 32.48 32.87 32.36 32.13 32.23 31.15 30.14 30.22 30.22 29.98 30.64 30.92
24.04 22.98 24.41 22.50 27.56 26.09 26.87 29.37 32.00 29.17 30.13 29.79 32.75 36.84 33.17 31.51 31.01 31.17 30.72 30.66 30.14 29.40 28.03 28.14 28.02 27.07 29.19 28.21 29.07 28.64 30.24 32.80 32.51 31.78 31.98 32.29 31.90 31.33 31.18 30.28 29.13 32.84 33.12 32.79